Weather History for Crestview, FL

Change the Weather History Date:

Friday, February 15, 2013

  Actual Average Record
Temperature  
Mean Temperature 48 °F -  
Max Temperature 65 °F - - ()
Min Temperature 30 °F - - ()
Degree Days  
Heating Degree Days 18    
Moisture  
Dew Point 36 °F    
Average Humidity 70    
Maximum Humidity 100    
Minimum Humidity 31    
Precipitation  
Precipitation 0.00 in - - ()
Sea Level Pressure  
Sea Level Pressure 30.09 in    
Wind  
Wind Speed 3 mph (WNW)    
Max Wind Speed 9 mph    
Max Gust Speed -    
Visibility 9 miles    
Events      
T = Trace of Precipitation, MM = Missing Value Source: NWS Daily Summary

Daily Weather History Graph

Daily Weather History Graph

Search for Another Location

Airport:

Trip Planner

Search our weather history database for the weather conditions in past years. The results will help you decide how hot, cold, wet, or windy it might be!

Date:

Astronomy

Feb. 15, 2013 Rise Set
Actual Time 6:26 AM CST 5:34 PM CST
Civil Twilight 6:01 AM CST 5:58 PM CST
Nautical Twilight 5:33 AM CST 6:27 PM CST
Astronomical Twilight 5:05 AM CST 6:55 PM CST
Moon 9:29 AM CST (2/15) 11:05 PM CST (2/15)
Length of Visible Light 11h 57m
Length of Day
11h 07m
Waxing Crescent, 30% of the Moon is Illuminated
Feb 15
Waxing Crescent
Feb 17
First Quarter
Feb 25
Full
Mar 4
Last Quarter
Mar 11
New

Hourly Weather History & Observations

Time (CST) Temp. Windchill Dew Point Humidity Pressure Visibility Wind Dir Wind Speed Gust Speed Precip Events Conditions
12:58 AM 32.9 °F - 31.1 °F 93% 30.09 in 8.0 mi Calm Calm - N/A   Clear
1:58 AM 33.4 °F - 31.8 °F 94% 30.09 in 10.0 mi Calm Calm - N/A   Clear
2:48 AM 32.0 °F - 32.0 °F 100% 30.09 in 2.5 mi Calm Calm - N/A   Clear
2:53 AM 32.0 °F - 32.0 °F 100% 30.09 in 3.0 mi Calm Calm - N/A   Clear
2:58 AM 32.0 °F - 32.0 °F 100% 30.09 in 5.0 mi Calm Calm - N/A   Clear
3:58 AM 32.5 °F - 31.3 °F 95% 30.10 in 9.0 mi Calm Calm - N/A   Clear
4:58 AM 31.3 °F - 29.7 °F 94% 30.11 in 10.0 mi Calm Calm - N/A   Clear
5:58 AM 31.6 °F - 30.0 °F 94% 30.12 in 10.0 mi NNW 1.2 mph - N/A   Clear
6:58 AM 30.9 °F - 29.1 °F 93% 30.14 in 10.0 mi NNW 1.2 mph - N/A   Clear
7:58 AM 39.7 °F 36.5 °F 38.1 °F 94% 30.16 in 10.0 mi North 4.6 mph - N/A   Clear
8:56 AM 48.4 °F - 40.5 °F 74% 30.17 in 10.0 mi NNE 5.8 mph - N/A   Clear
9:55 AM 56.7 °F - 39.6 °F 53% 30.17 in 10.0 mi NNE 8.1 mph - N/A   Clear
10:55 AM 60.6 °F - 37.6 °F 42% 30.15 in 10.0 mi Variable 5.8 mph - N/A   Clear
11:59 AM 62.8 °F - 35.6 °F 36% 30.12 in 10.0 mi Variable 1.2 mph - N/A   Clear
12:55 PM 62.2 °F - 36.3 °F 38% 30.07 in 10.0 mi South 5.8 mph - N/A   Partly Cloudy
1:55 PM 63.9 °F - 36.3 °F 36% 30.05 in 10.0 mi NW 4.6 mph - N/A   Partly Cloudy
2:55 PM 65.1 °F - 33.6 °F 31% 30.05 in 10.0 mi Variable 2.3 mph - N/A   Partly Cloudy
3:55 PM 65.1 °F - 35.2 °F 33% 30.04 in 10.0 mi NNW 8.1 mph - N/A   Partly Cloudy
4:55 PM 62.2 °F - 34.7 °F 36% 30.04 in 10.0 mi NW 5.8 mph - N/A   Mostly Cloudy
5:55 PM 56.5 °F - 42.3 °F 59% 30.04 in 9.0 mi SW 3.5 mph - N/A   Mostly Cloudy
6:55 PM 54.3 °F - 41.7 °F 62% 30.06 in 10.0 mi WSW 6.9 mph - N/A   Scattered Clouds
7:55 PM 53.1 °F - 42.3 °F 67% 30.06 in 10.0 mi WSW 9.2 mph - N/A   Partly Cloudy
8:55 PM 51.3 °F - 42.3 °F 71% 30.07 in 10.0 mi West 6.9 mph - N/A   Partly Cloudy
9:55 PM 50.5 °F - 42.6 °F 74% 30.07 in 10.0 mi West 6.9 mph - N/A   Partly Cloudy
10:55 PM 49.3 °F - 41.5 °F 75% 30.06 in 10.0 mi West 8.1 mph - N/A   Scattered Clouds
11:55 PM 48.6 °F - 41.4 °F 76% 30.06 in 10.0 mi West 8.1 mph - N/A   Scattered Clouds